| time (UTC) | temp F | wind direction | speed MPH | gust MPH | rain 1hr in | rain 24hr in | rain mn in | humidity % | barometer mb |
| 20260507120053 | 56 | 0 | 0.0 | 2.0 | 0.00 | 0.00 | 0.00 | 90 | 1015.8 |
| 20260507114544 | 56 | 112 | 1.0 | 2.0 | 0.00 | 0.00 | 0.00 | 90 | 1015.8 |
| 20260507113047 | 56 | 0 | 0.0 | 0.0 | 0.00 | 0.00 | 0.00 | 90 | 1015.9 |
| 20260507111539 | 56 | 0 | 0.0 | 0.0 | 0.00 | 0.00 | 0.00 | 90 | 1016.0 |
| 20260507110038 | 56 | 0 | 0.0 | 1.0 | 0.00 | 0.00 | 0.00 | 90 | 1015.8 |
| 20260507104547 | 56 | 105 | 0.0 | 1.0 | 0.00 | 0.00 | 0.00 | 90 | 1016.0 |
| 20260507103036 | 57 | 0 | 0.0 | 1.0 | 0.00 | 0.00 | 0.00 | 90 | 1016.1 |
| 20260507101542 | 57 | 90 | 0.0 | 2.0 | 0.00 | 0.00 | 0.00 | 91 | 1016.1 |
| 20260507100042 | 57 | 0 | 0.0 | 0.0 | 0.00 | 0.00 | 0.00 | 90 | 1016.1 |
| 20260507094539 | 57 | 0 | 0.0 | 1.0 | 0.00 | 0.00 | 0.00 | 90 | 1016.2 |
| 20260507093036 | 57 | 0 | 0.0 | 2.0 | 0.00 | 0.00 | 0.00 | 90 | 1016.3 |
| 20260507091536 | 57 | 352 | 1.0 | 2.0 | 0.00 | 0.00 | 0.00 | 89 | 1016.4 |
| 20260507090045 | 58 | 0 | 0.0 | 0.0 | 0.00 | 0.00 | 0.00 | 89 | 1016.5 |
| 20260507084539 | 58 | 0 | 0.0 | 1.0 | 0.00 | 0.00 | 0.00 | 89 | 1016.6 |
| 20260507083039 | 59 | 0 | 0.0 | 0.0 | 0.00 | 0.00 | 0.00 | 89 | 1016.8 |
| 20260507081543 | 59 | 0 | 0.0 | 1.0 | 0.00 | 0.00 | 0.00 | 89 | 1017.0 |
| 20260507080043 | 59 | 0 | 0.0 | 0.0 | 0.00 | 0.00 | 0.00 | 89 | 1017.2 |
| 20260507074541 | 60 | 0 | 0.0 | 2.0 | 0.00 | 0.00 | 0.00 | 89 | 1017.1 |
| 20260507073046 | 60 | 0 | 0.0 | 2.0 | 0.00 | 0.00 | 0.00 | 88 | 1017.1 |
| 20260507071539 | 60 | 0 | 0.0 | 1.0 | 0.00 | 0.00 | 0.00 | 88 | 1017.0 |
| 20260507070040 | 60 | 0 | 0.0 | 0.0 | 0.00 | 0.00 | 0.00 | 88 | 1017.2 |
| 20260507064542 | 60 | 0 | 0.0 | 2.0 | 0.00 | 0.00 | 0.00 | 88 | 1017.5 |
| 20260507063046 | 60 | 0 | 0.0 | 2.0 | 0.00 | 0.00 | 0.00 | 87 | 1017.4 |
| 20260507061541 | 61 | 0 | 1.0 | 3.0 | 0.00 | 0.00 | 0.00 | 87 | 1017.4 |
| 20260507060039 | 61 | 0 | 0.0 | 2.0 | 0.00 | 0.00 | 0.00 | 86 | 1017.4 |
| 20260507054539 | 61 | 0 | 0.0 | 3.0 | 0.00 | 0.00 | 0.00 | 86 | 1017.4 |
| 20260507053045 | 61 | 296 | 0.0 | 3.0 | 0.00 | 0.00 | 0.00 | 86 | 1017.6 |
| 20260507051540 | 61 | 293 | 1.0 | 4.0 | 0.00 | 0.00 | 0.00 | 86 | 1017.5 |
| 20260507050036 | 61 | 306 | 2.0 | 5.0 | 0.00 | 0.00 | 0.00 | 86 | 1017.4 |
| 20260507044543 | 62 | 299 | 2.0 | 4.0 | 0.00 | 0.00 | 0.00 | 85 | 1017.4 |
| 20260507043041 | 62 | 289 | 1.0 | 7.0 | 0.00 | 0.00 | 0.00 | 85 | 1017.3 |
| 20260507041543 | 62 | 314 | 2.0 | 7.0 | 0.00 | 0.00 | 0.00 | 85 | 1017.4 |
| 20260507040042 | 62 | 360 | 3.0 | 7.0 | 0.00 | 0.00 | 0.00 | 85 | 1017.2 |
| 20260507034544 | 62 | 294 | 3.0 | 8.0 | 0.00 | 0.00 | 0.00 | 85 | 1017.0 |
| 20260507033049 | 62 | 313 | 4.0 | 8.0 | 0.00 | 0.00 | 0.00 | 85 | 1016.9 |
| 20260507031539 | 62 | 311 | 4.0 | 11.0 | 0.00 | 0.00 | 0.00 | 84 | 1016.7 |
| 20260507030037 | 62 | 306 | 5.0 | 10.0 | 0.00 | 0.00 | 0.00 | 83 | 1016.6 |
| 20260507024543 | 63 | 302 | 6.0 | 11.0 | 0.00 | 0.00 | 0.00 | 82 | 1016.6 |
| 20260507023040 | 63 | 290 | 6.0 | 12.0 | 0.00 | 0.00 | 0.00 | 81 | 1016.3 |
| 20260507021536 | 64 | 287 | 6.0 | 11.0 | 0.00 | 0.00 | 0.00 | 78 | 1016.3 |
| 20260507020039 | 64 | 306 | 7.0 | 11.0 | 0.00 | 0.00 | 0.00 | 77 | 1016.3 |
| 20260507014543 | 65 | 331 | 6.0 | 12.0 | 0.00 | 0.00 | 0.00 | 74 | 1016.2 |
| 20260507013041 | 65 | 301 | 6.0 | 12.0 | 0.00 | 0.00 | 0.00 | 74 | 1016.2 |
| 20260507011540 | 66 | 296 | 6.0 | 13.0 | 0.00 | 0.00 | 0.00 | 75 | 1016.1 |
| 20260507010039 | 66 | 294 | 8.0 | 13.0 | 0.00 | 0.00 | 0.00 | 75 | 1016.1 |
| 20260507004535 | 66 | 285 | 8.0 | 14.0 | 0.00 | 0.00 | 0.00 | 75 | 1016.1 |
| 20260507003038 | 66 | 281 | 8.0 | 14.0 | 0.00 | 0.00 | 0.00 | 74 | 1016.0 |
| 20260507001603 | 66 | 263 | 8.0 | 15.0 | 0.00 | 0.00 | 0.00 | 75 | 1016.0 |
| 20260507000038 | 66 | 277 | 9.0 | 14.0 | 0.00 | 0.00 | 0.00 | 73 | 1016.0 |
| 20260506234547 | 67 | 252 | 7.0 | 15.0 | 0.00 | 0.00 | 0.00 | 74 | 1016.0 |
| 20260506233039 | 67 | 270 | 8.0 | 16.0 | 0.00 | 0.00 | 0.00 | 72 | 1016.0 |
| 20260506231539 | 66 | 291 | 10.0 | 17.0 | 0.00 | 0.00 | 0.00 | 73 | 1016.0 |
| 20260506230036 | 66 | 284 | 9.0 | 17.0 | 0.00 | 0.00 | 0.00 | 72 | 1016.0 |
| 20260506224557 | 67 | 274 | 8.0 | 14.0 | 0.00 | 0.00 | 0.00 | 71 | 1016.2 |
| 20260506223035 | 66 | 303 | 10.0 | 16.0 | 0.00 | 0.00 | 0.00 | 72 | 1016.2 |
| 20260506221536 | 67 | 313 | 8.0 | 15.0 | 0.00 | 0.00 | 0.00 | 70 | 1016.4 |
| 20260506220048 | 66 | 266 | 9.0 | 17.0 | 0.00 | 0.00 | 0.00 | 70 | 1016.5 |
| 20260506214539 | 67 | 267 | 8.0 | 14.0 | 0.00 | 0.00 | 0.00 | 69 | 1016.6 |
| 20260506213035 | 66 | 250 | 11.0 | 17.0 | 0.00 | 0.00 | 0.00 | 71 | 1016.7 |
| 20260506211550 | 66 | 303 | 8.0 | 16.0 | 0.00 | 0.00 | 0.00 | 70 | 1016.8 |
| 20260506210043 | 65 | 288 | 10.0 | 17.0 | 0.00 | 0.00 | 0.00 | 71 | 1017.0 |
| 20260506204542 | 65 | 271 | 11.0 | 17.0 | 0.00 | 0.00 | 0.00 | 71 | 1017.0 |
| 20260506203047 | 66 | 292 | 10.0 | 17.0 | 0.00 | 0.00 | 0.00 | 69 | 1017.0 |
| 20260506201537 | 66 | 261 | 10.0 | 19.0 | 0.00 | 0.00 | 0.00 | 69 | 1017.0 |
| 20260506200038 | 66 | 324 | 8.0 | 17.0 | 0.00 | 0.00 | 0.00 | 69 | 1017.1 |
| 20260506194543 | 66 | 294 | 10.0 | 16.0 | 0.00 | 0.00 | 0.00 | 69 | 1017.3 |
| 20260506193045 | 66 | 269 | 11.0 | 16.0 | 0.00 | 0.00 | 0.00 | 69 | 1017.4 |
| 20260506191539 | 66 | 261 | 11.0 | 18.0 | 0.00 | 0.00 | 0.00 | 69 | 1017.5 |
| 20260506190037 | 66 | 258 | 9.0 | 15.0 | 0.00 | 0.00 | 0.00 | 70 | 1017.5 |
| 20260506184544 | 66 | 256 | 8.0 | 16.0 | 0.00 | 0.00 | 0.00 | 69 | 1017.7 |
| 20260506183041 | 66 | 275 | 8.0 | 13.0 | 0.00 | 0.00 | 0.00 | 69 | 1017.8 |
| 20260506181554 | 65 | 273 | 8.0 | 15.0 | 0.00 | 0.00 | 0.00 | 70 | 1018.0 |
| 20260506180037 | 65 | 249 | 8.0 | 14.0 | 0.00 | 0.00 | 0.00 | 69 | 1018.1 |
| 20260506174536 | 66 | 282 | 6.0 | 13.0 | 0.00 | 0.00 | 0.00 | 68 | 1018.1 |
| 20260506173105 | 66 | 289 | 7.0 | 12.0 | 0.00 | 0.00 | 0.00 | 68 | 1018.2 |
| 20260506171546 | 64 | 289 | 4.0 | 11.0 | 0.00 | 0.00 | 0.00 | 68 | 1018.3 |
| 20260506170044 | 65 | 306 | 6.0 | 12.0 | 0.00 | 0.00 | 0.00 | 66 | 1018.2 |
| 20260506164539 | 65 | 330 | 5.0 | 10.0 | 0.00 | 0.00 | 0.00 | 66 | 1018.2 |
| 20260506163035 | 64 | 324 | 2.0 | 8.0 | 0.00 | 0.00 | 0.00 | 69 | 1018.3 |
| 20260506161535 | 63 | 350 | 6.0 | 10.0 | 0.00 | 0.00 | 0.00 | 69 | 1018.2 |
| 20260506160052 | 64 | 0 | 0.0 | 5.0 | 0.00 | 0.00 | 0.00 | 67 | 1018.2 |
| 20260506154544 | 64 | 96 | 0.0 | 7.0 | 0.00 | 0.00 | 0.00 | 68 | 1018.3 |
| 20260506153035 | 64 | 28 | 1.0 | 6.0 | 0.00 | 0.00 | 0.00 | 69 | 1018.2 |
| 20260506151536 | 63 | 80 | 2.0 | 4.0 | 0.00 | 0.00 | 0.00 | 70 | 1018.4 |
| 20260506150038 | 62 | 0 | 1.0 | 3.0 | 0.00 | 0.00 | 0.00 | 71 | 1018.3 |
| 20260506144545 | 62 | 132 | 1.0 | 3.0 | 0.00 | 0.02 | 0.00 | 71 | 1018.2 |
| 20260506143039 | 61 | 144 | 0.0 | 2.0 | 0.00 | 0.02 | 0.00 | 74 | 1018.3 |
| 20260506141540 | 59 | 0 | 0.0 | 1.0 | 0.00 | 0.02 | 0.00 | 77 | 1018.2 |
| 20260506140037 | 58 | 94 | 1.0 | 3.0 | 0.00 | 0.02 | 0.00 | 80 | 1018.2 |
| 20260506134538 | 56 | 90 | 1.0 | 4.0 | 0.00 | 0.12 | 0.00 | 82 | 1018.1 |
| 20260506133041 | 55 | 0 | 0.0 | 2.0 | 0.00 | 0.12 | 0.00 | 83 | 1018.0 |
| 20260506131547 | 55 | 0 | 0.0 | 1.0 | 0.00 | 0.12 | 0.00 | 83 | 1017.8 |
| 20260506130043 | 55 | 0 | 0.0 | 3.0 | 0.00 | 0.12 | 0.00 | 84 | 1017.6 |
| 20260506124538 | 55 | 0 | 0.0 | 1.0 | 0.00 | 0.12 | 0.00 | 84 | 1017.6 |
| 20260506123038 | 55 | 0 | 0.0 | 1.0 | 0.00 | 0.12 | 0.00 | 84 | 1017.4 |
| 20260506121543 | 55 | 0 | 0.0 | 2.0 | 0.00 | 0.12 | 0.00 | 84 | 1017.3 |